Weather History for PAGK - January, 2013

Change the Weather History Date:

Friday, January 25, 2013

  Actual Average Record
Temperature  
Mean Temperature 6 °F -  
Max Temperature 12 °F 0 °F 39 °F (1977)
Min Temperature -2 °F -14 °F -52 °F (1971)
Degree Days  
Heating Degree Days 59    
Moisture  
Dew Point 2 °F    
Average Humidity 80    
Maximum Humidity 88    
Minimum Humidity 60    
Precipitation  
Precipitation 0.20 in - - ()
Snow  
Snow 0.00 in - - ()
Snow Depth 11.00 in    
Sea Level Pressure  
Sea Level Pressure 29.47 in    
Wind  
Wind Speed 8 mph (NNW)    
Max Wind Speed 14 mph    
Max Gust Speed 18 mph    
Visibility 4 miles    
Events Fog , Snow    
Averages and records for this station are not official NWS values.
T = Trace of Precipitation, MM = Missing Value Source: NWS Daily Summary

Daily Weather History Graph

Daily Weather History Graph

Search for Another Location

Airport or City:

Trip Planner

Search our weather history database for the weather conditions in past years. The results will help you decide how hot, cold, wet, or windy it might be!

Date:

Astronomy

Jan. 25, 2013 Rise Set
Actual Time 9:24 AM AKST 4:24 PM AKST
Civil Twilight 8:30 AM AKST 5:18 PM AKST
Nautical Twilight 7:34 AM AKST 6:15 PM AKST
Astronomical Twilight 6:41 AM AKST 7:07 PM AKST
Moon 3:32 PM AKST (1/25) 8:11 AM AKST (1/25)
Length of Visible Light 8h 48m
Length of Day
6h 59m
Waxing Gibbous, 98% of the Moon is Illuminated
Jan 25
Waxing Gibbous
Jan 26
Full
Feb 3
Last Quarter
Feb 9
New
Feb 17
First Quarter

Hourly Weather History & Observations

Time (AKST) Temp. Windchill Dew Point Humidity Pressure Visibility Wind Dir Wind Speed Gust Speed Precip Events Conditions
12:53 AM 12.0 °F - 9.0 °F 88% 29.43 in 10.0 mi Calm Calm - N/A   Overcast
1:53 AM 12.0 °F -0.4 °F 9.0 °F 88% 29.42 in 10.0 mi North 9.2 mph - N/A   Overcast
3:53 AM 10.9 °F -1.8 °F 7.0 °F 84% 29.39 in 10.0 mi NNE 9.2 mph - N/A   Overcast
4:53 AM 10.9 °F -3.4 °F 6.1 °F 81% 29.39 in 10.0 mi North 11.5 mph - N/A   Overcast
5:53 AM 10.9 °F -1.8 °F 7.0 °F 84% 29.39 in 10.0 mi North 9.2 mph - N/A   Overcast
6:53 AM 10.9 °F -1.8 °F 6.1 °F 81% 29.39 in 9.0 mi North 9.2 mph - 0.00 in Snow Light Snow
6:56 AM 10.9 °F -3.4 °F 6.1 °F 81% 29.25 in 9.0 mi North 11.5 mph - 0.00 in Snow Light Snow
7:03 AM 10.9 °F -0.8 °F 6.1 °F 81% 29.25 in 9.0 mi North 8.1 mph - 0.00 in Snow Light Snow
7:53 AM 10.0 °F -0.9 °F 6.1 °F 84% 29.40 in 3.0 mi North 6.9 mph - 0.01 in Snow Light Snow
8:53 AM 10.0 °F -1.9 °F 5.0 °F 80% 29.43 in 3.0 mi North 8.1 mph - 0.01 in Snow Light Snow
9:06 AM 10.0 °F -1.9 °F 6.1 °F 84% 29.29 in 2.0 mi NNW 8.1 mph - 0.00 in Snow Light Snow
9:27 AM 9.0 °F -7.3 °F 3.9 °F 80% 29.30 in 1.0 mi North 13.8 mph - 0.01 in Snow Light Snow
9:36 AM 9.0 °F -4.2 °F 5.0 °F 84% 29.30 in 0.8 mi North 9.2 mph - 0.01 in Snow Light Snow
9:53 AM 9.0 °F -3.2 °F 6.1 °F 88% 29.45 in 0.5 mi NNW 8.1 mph - 0.02 in Fog , Snow Snow
10:53 AM 8.1 °F -5.3 °F 3.9 °F 83% 29.47 in 0.5 mi North 9.2 mph - 0.04 in Fog , Snow Snow
11:17 AM 8.1 °F -4.3 °F 3.9 °F 83% 29.34 in 0.5 mi NNW 8.1 mph - 0.02 in Fog , Snow Snow
11:53 AM 8.1 °F -6.2 °F 3.9 °F 83% 29.50 in 0.2 mi NNW 10.4 mph - 0.06 in Fog , Snow Heavy Snow
12:21 PM 8.1 °F -4.3 °F 3.0 °F 80% 29.37 in 0.5 mi NNW 8.1 mph - 0.02 in Fog , Snow Snow
12:35 PM 8.1 °F -4.3 °F 3.0 °F 80% 29.37 in 1.0 mi NNW 8.1 mph - 0.03 in Snow Light Snow
12:53 PM 7.0 °F -6.6 °F 3.0 °F 84% 29.52 in 0.8 mi NNW 9.2 mph 18.4 mph 0.04 in Snow Light Snow
1:53 PM 6.1 °F -9.5 °F 1.0 °F 80% 29.53 in 0.8 mi North 11.5 mph - 0.02 in Snow Light Snow
2:53 PM 6.1 °F -8.7 °F 1.0 °F 80% 29.55 in 0.8 mi North 10.4 mph - 0.03 in Snow Light Snow
3:16 PM 5.0 °F -10.0 °F 1.0 °F 84% 29.41 in 1.0 mi North 10.4 mph - 0.01 in Snow Light Snow
3:53 PM 5.0 °F -10.8 °F -0.0 °F 80% 29.57 in 2.0 mi North 11.5 mph - 0.02 in Snow Light Snow
4:07 PM 5.0 °F -10.8 °F -0.0 °F 80% 29.42 in 4.0 mi NNW 11.5 mph - 0.00 in Snow Light Snow
4:53 PM 3.9 °F -12.2 °F -0.9 °F 80% 29.59 in 3.0 mi North 11.5 mph - 0.00 in Snow Light Snow
5:53 PM 3.0 °F -10.5 °F -0.9 °F 84% 29.61 in 3.0 mi NNW 8.1 mph - 0.01 in Snow Light Snow
6:53 PM 1.9 °F -14.7 °F -2.9 °F 80% 29.63 in 5.0 mi NNW 11.5 mph - 0.01 in Snow Light Snow
7:53 PM 1.9 °F -13.8 °F -4.0 °F 76% 29.65 in 5.0 mi North 10.4 mph - 0.00 in Snow Light Snow
8:53 PM 1.9 °F -14.7 °F -5.1 °F 72% 29.66 in 5.0 mi NNW 11.5 mph - 0.00 in Snow Light Snow
9:26 PM 1.0 °F -14.0 °F -5.1 °F 75% 29.51 in 5.0 mi NNW 9.2 mph - 0.00 in Snow Light Snow
9:53 PM -0.0 °F -15.3 °F -5.1 °F 79% 29.68 in 5.0 mi NNW 9.2 mph - 0.00 in Snow Light Snow
10:53 PM -0.9 °F -16.4 °F -7.1 °F 75% 29.69 in 6.0 mi NW 9.2 mph - 0.00 in Snow Light Snow
11:53 PM -2.0 °F -18.7 °F -8.0 °F 76% 29.71 in 6.0 mi NNW 10.4 mph - 0.00 in Snow Light Snow